Location: Forst
(46.9333°N, 15.4333°E)
Time: 11:58:56
(UTC+00:00)

X-37B - Pass Details

Date: 01 October 2021
Orbit: 385 x 389 km, 45.0° (Epoch: 17 October)

Event Time Altitude Azimuth Distance (km) Brightness Sun altitude
Exits shadow 02:43:46 28° 117° (ESE) 764 2.4 -23.1°
Drops below altitude 10° 02:45:28 10° 106° (ESE) 1,413 4.1 -22.9°
Sets 02:47:33 0° 103° (ESE) 2,267 5.4 -22.5°
